Location: ??? ???
(33.4974°N, 35.4618°E)
Time: 02:02:19
(UTC+00:00)

Cosmos 1992 Rocket - Visible Passes

Search period start: 27 February 2021 00:00
Search period end: 09 March 2021 00:00
Orbit: 758 x 766 km, 74.0° (Epoch: 26 February)

Date Brightness Start Highest point End Pass type
(mag) Time Alt. Az. Time Alt. Az. Time Alt. Az.
27 Feb 6.7 02:28:38 10° NNE 02:32:17 19° ENE 02:35:54 10° ESE visible
27 Feb 3.9 16:59:02 10° SSW 17:04:16 88° WNW 17:09:32 10° NNE visible
28 Feb 4.0 03:30:26 10° NNW 03:35:39 82° WSW 03:40:51 10° SSE visible
28 Feb 4.2 16:20:33 10° S 16:25:33 48° ESE 16:30:34 10° NNE visible
28 Feb 6.7 18:04:22 10° WSW 18:07:43 17° WNW 18:11:05 10° NNW visible
01 Mar 4.8 02:51:45 10° N 02:56:51 52° ENE 03:01:53 10° SSE visible
01 Mar 5.8 17:24:05 10° SW 17:28:40 30° WNW 17:33:15 10° N visible
02 Mar 6.0 02:13:26 10° N 02:17:55 28° ENE 02:22:21 10° SE visible
02 Mar 4.7 16:44:37 10° SSW 16:49:44 57° WNW 16:54:54 10° N visible
03 Mar 6.8 01:35:45 10° NNE 01:38:50 16° ENE 01:41:55 10° E visible
03 Mar 4.1 03:16:01 10° NNW 03:21:04 52° WSW 03:26:04 10° S visible
03 Mar 4.0 16:05:44 10° S 16:10:56 77° ESE 16:16:11 10° NNE visible
03 Mar 7.1 17:52:03 10° WNW 17:53:26 11° WNW 17:54:50 10° NW visible
04 Mar 4.0 02:37:06 10° NNW 02:42:19 82° ENE 02:47:31 10° SSE visible
04 Mar 6.6 17:10:27 10° WSW 17:14:17 20° WNW 17:18:08 10° NNW visible
05 Mar 5.1 01:58:31 10° N 02:03:29 43° ENE 02:08:23 10° SE visible
05 Mar 5.7 16:30:29 10° SW 16:35:16 36° WNW 16:40:06 10° N visible
06 Mar 6.2 01:20:21 10° NNE 01:24:30 24° ENE 01:28:37 10° ESE visible
06 Mar 4.6 03:01:48 10° NW 03:06:25 33° W 03:11:00 10° SSW visible
07 Mar 6.9 00:43:01 10° NNE 00:45:23 13° ENE 00:47:44 10° E visible
07 Mar 3.9 02:22:36 10° NNW 02:27:45 64° WSW 02:32:52 10° S visible
07 Mar 7.0 16:57:28 10° W 16:59:58 13° WNW 17:02:29 10° NNW visible
08 Mar 4.2 01:43:47 10° N 01:48:59 67° ENE 01:54:08 10° SSE visible
08 Mar 5.8 03:29:16 10° W 03:30:12 10° W 03:31:08 10° WSW visible
08 Mar 6.5 16:16:40 10° WSW 16:20:52 24° WNW 16:25:06 10° N visible
